Showing default

GLOBALSTAR M067, 32263

Orbit data source: Space-Track

GLOBALSTAR M067, 32263 is a payload satellite owned by Globalstar (US) in LEO that was launched on Sat, 20 Oct 2007 UTC via a SOYUZ-FG launch vehicle from the Tyuratam Missile And Space Complex (TTMTR). Payload-class satellites include a variety of spacecraft equipped with specific instruments for various scientific and technological missions. These include communications satellites like Starlink; space stations such as the ISS; scientific satellites like the Hubble; Earth observation satellites from companies like Planet Labs, Umbra, and HawkEye 360; GPS; miniature CubeSats for education and research; and military/defense satellites.

Loading next visibility...
Identifier
32263, 2007-048A
Orbit
LEO
Country
Flag of UnknownUnknown / GLOB
Related business
Manufacturer
SS/Loral
Mission
Non-operational Commercial Communications
Bus & Motor
LS-400, LS-400 AOCS
Mass
450 kg wet, 380 kg dry
Launch date (UTC)
2007-10-20 (18 years ago)
Launch vehicle
SOYUZ-FG
Launch site
Tyuratam Missile And Space Complex (TTMTR)
Object type
Payload
Rocket body
Debris
Shape & HBR
Box + 2 Pan, 6.0 m
Radar Cross Section
5.587 m², Large (>1 m²)

Expand to show TLE details & history
Last TLE update: 8 hours ago

TLE from 8 hours ago
0 GLOBALSTAR M067
1 32263U 07048A   25289.04078381 -.00000059  00000-0  28498-3 0  9991
2 32263  51.9748  42.2990 0000831 198.6149 332.4272 12.40679915824481
Epoch: 2025-10-16T00:58Z
TLE epoch observation values (Epoch: 2025-10-16T00:58:43.721Z)
Latitude
7.01963°
Longitude
177.31221°
Altitude
1,503.18 km
Speed
7.115 km/s
True Right ascension
14h 27m 12s
True Declination
6° 58' 55"
Sunlit
Object was in daylight at epoch
Visualization orbit readout
Latitude
Unknown
Longitude
Unknown
Altitude
Unknown
Speed
Unknown
Apparent Right ascension
Unknown
Apparent Declination
Unknown
Sunlit
N/A
Visualization observer readout
Local Sidereal Time
03:44:45
Azimuth
Unknown
Elevation
Unknown
Doppler factor
Unknown
Orbital elements
Apogee altitude
1,504.769 km
Perigee altitude
1,503.459 km
Semi-major axis
7,882.251 km
Eccentricity
0.00008
Inclination
51.9748°
RAAN
42.299°
Arg. of periapsis
198.6149°
True anomaly
332.42279°
Mean anomaly
332.4272°
Eccentric anomaly
332.425°
Mean motion
3.10147 °/min
Orbital period
116.07 mins
BSTAR
0.00028498
Loading maneuver chart data...
Computing Atmospheric mass density...
Loading historical data...
Loading historical data...
Loading historical data...
Loading historical data...
Loading historical data...
Loading historical data...
Loading historical data...
Other satellites on launch #48 in the year 2007 (2007-10-20 UTC)

Documentation

Showing up to 5 results
|